[[{"header":{"parameterUnit":"m.s-1","parameterCategory":1,"la1":30.2991,"la2":30.254,"lo1":-89.0895,"lo2":-89.0444,"dy":0.0017,"dx":0.0017,"nx":28,"ny":28,"refTime":"2023-08-23T09:00:00:Z","depth":0,"parameterNumber":2,"parameterNumberName":"U-component_of_WINDS"},"data":[0,0,0,0,0,0,0,0,0,0,0,0,0,0,0,0,0,0,0,0,0,0,0,0,0,0,0,0,0,0,0,0,0,0,0,0,0,0,0,0,0,0,0,0,0,0,0,0,0,0,0,0,0,0,0,0,0,0,2.1887,2.1888,0,2.1929,2.1929,2.193,2.1894,2.1893,2.1891,2.189,2.1931,2.1934,2.1936,0,0,0,0,0,0,0,0,0,0,0,0,0,2.1777,2.1779,2.1887,2.1888,2.1888,2.1929,2.1929,2.193,2.1894,2.1892,2.1891,2.1889,2.193,2.1933,2.1936,0,0,0,0,0,0,0,0,0,0,0,0,0,2.1822,2.178,2.1887,2.1875,2.1875,2.1929,2.1929,2.193,2.1895,2.1892,2.189,2.1888,2.1929,2.1933,2.1937,2.2004,0,0,2.1948,2.195,0,0,0,0,0,0,0,0,2.182,2.1826,2.1877,2.1876,2.1876,2.1904,2.1906,2.1955,2.1895,2.1887,2.189,2.1887,2.1924,2.1928,2.1941,2.2006,2.2008,2.1948,2.1951,2.1952,2.1953,0,0,0,0,0,0,0,2.1816,2.1824,2.1904,2.1877,2.1877,2.1868,2.1872,2.1915,2.1917,2.1888,2.1885,2.1891,2.1923,2.1937,2.1941,2.2008,2.1948,2.1952,2.1954,2.1955,2.2132,2.2135,0,0,0,0,0,0,2.1815,2.1822,2.1902,2.1905,2.1842,2.1872,2.1876,2.1897,2.1917,2.1918,2.1892,2.1889,2.1932,2.1937,2.1943,2.2023,2.1952,2.1956,2.1958,2.213,2.2133,2.2135,0,0,0,0,0,0,2.1812,2.1822,2.1901,2.1863,2.1872,2.1876,2.19,2.1899,2.1913,2.192,2.1921,2.1906,2.193,2.1937,2.1989,2.2024,2.1957,2.1961,2.2127,2.2131,2.2134,2.2185,0,0,0,0,0,0,2.1809,2.1822,2.1847,2.1864,2.1874,2.1947,2.1902,2.1902,2.192,2.1915,2.1933,2.1934,2.1929,2.1984,2.1993,2.2028,2.1964,2.2124,2.2129,2.2133,2.218,2.219,2.2198,0,0,0,0,0,2.1805,2.1859,2.1849,2.1858,2.1906,2.1949,2.1955,2.1948,2.1923,2.1948,2.1953,2.1934,2.2019,2.199,2.2,2.2036,2.2122,2.2127,2.2133,2.2176,2.2188,2.2198,0,0,0,0,0,0,2.1846,2.1861,2.1849,2.191,2.1929,2.1943,2.1975,2.1961,2.1987,2.1981,2.1972,2.1976,2.2031,2.2039,2.2006,2.2103,2.2066,2.2074,2.2096,2.2107,2.2116,2.2113,2.1967,0,0,0,0,0,2.1862,2.1896,2.1907,2.196,2.197,2.1971,2.1989,2.1983,2.2001,2.2009,2.2017,2.2036,2.2067,2.2087,2.2116,2.2181,2.2185,2.2211,2.222,2.2228,2.2234,2.227,2.2282,2.2154,2.2154,2.2154,0,0,2.1895,2.1908,2.193,2.1968,2.1982,2.2017,2.1978,2.2016,2.2042,2.2014,2.2064,2.2071,2.2091,2.215,2.2177,2.2159,2.2271,2.2235,2.2241,2.2243,2.2277,2.2289,2.23,2.2157,2.2157,2.2156,0,0,2.1974,2.1987,2.2032,2.2047,2.2068,2.2069,2.208,2.2097,2.2101,2.2151,2.2131,2.2162,2.2215,2.2231,2.2246,2.2332,2.2315,2.2342,2.2389,2.2423,2.2433,2.2442,2.2473,2.2484,2.2348,2.2349,2.2349,0,2.2013,2.2065,2.2057,2.2098,2.2115,2.2093,2.2139,2.2153,2.2183,2.2196,2.2175,2.2243,2.2255,2.2317,2.2338,2.2351,2.2363,2.2339,2.2433,2.2442,2.245,2.2479,2.2491,2.2352,2.2351,2.2351,2.2351,0,2.2111,2.2148,2.2182,2.2212,2.2234,2.2276,2.2276,2.2299,2.2291,2.2294,2.2345,2.2359,2.2391,2.2405,2.2397,2.2467,2.2455,2.2434,2.2397,2.2465,2.2493,2.2504,2.2356,2.2355,2.2354,2.2353,0,0,2.2215,2.2242,2.2254,2.2268,2.2291,2.2319,2.2361,2.2393,2.2412,2.2434,2.2469,2.2516,2.2497,2.2514,2.2507,2.2538,2.2606,2.2513,2.2513,2.253,2.2684,2.27,2.2713,2.2595,2.2597,2.2599,2.2682,0,2.2295,2.2369,2.2364,2.2433,2.2467,2.2447,2.2484,2.2502,2.2506,2.2536,2.254,2.2574,2.2546,2.2556,2.2586,2.2592,2.2637,2.2586,2.2628,2.2629,2.2623,2.2727,2.2744,2.2821,2.2693,2.2695,2.2696,0,2.2397,2.2423,2.2496,2.2515,2.2529,2.2562,2.2591,2.2619,2.264,2.2641,2.2661,2.265,2.2693,2.2655,2.2714,2.268,2.2697,2.2703,2.2706,2.2709,2.2667,2.2733,2.2846,2.2858,2.2713,2.2712,2.2711,0,2.2466,2.2519,2.257,2.2582,2.2605,2.2629,2.2639,2.2657,2.2677,2.2703,2.2715,2.2745,2.2762,2.2786,2.2783,2.2756,2.2844,2.2806,2.2846,2.2846,2.2864,2.2863,2.2982,2.2876,2.2876,2.2876,2.2876,0,2.2555,2.26,2.2601,2.2632,2.2683,2.2677,2.2727,2.2735,2.2752,2.2784,2.2769,2.28,2.2795,2.2826,2.2825,2.2874,2.2882,2.2884,2.2883,2.2885,2.2885,2.2896,2.289,2.2879,2.2878,2.2878,2.2877,0,2.264,2.2642,2.2696,2.2714,2.2719,2.2756,2.2771,2.28,2.2804,2.2845,2.2855,2.286,2.2896,2.2897,2.2937,2.2936,2.2997,2.299,2.299,2.2989,2.3029,2.3025,2.3158,2.3175,2.3059,2.306,2.3061,0,2.2696,2.2731,2.2753,2.2773,2.2786,2.2819,2.284,2.2836,2.2858,2.2884,2.2911,2.2945,2.2973,2.3031,2.3039,2.307,2.3063,2.3108,2.3068,2.3069,2.3064,2.3062,2.3065,2.3116,2.3117,2.3118,2.3119,0,2.2796,2.2796,2.2826,2.2857,2.2882,2.2906,2.2928,2.2946,2.2945,2.297,2.3007,2.3028,2.307,2.3105,2.3136,2.3146,2.3133,2.3132,2.3142,2.3145,2.3143,2.3145,2.3011,2.3128,2.3127,2.3127,2.3126,2.3126,2.2869,2.2899,2.2919,2.2953,2.297,2.2991,2.302,2.3028,2.3058,2.3093,2.3089,2.313,2.315,2.319,2.3204,2.3236,2.322,2.3236,2.324,2.3244,2.3248,2.3139,2.3241,2.3241,2.3241,2.3241,2.324,0,2.2968,2.298,2.3012,2.3044,2.3071,2.3056,2.308,2.3104,2.314,2.3161,2.3188,2.3231,2.3265,2.3276,2.3309,2.3332,2.3327,2.3341,2.3339,2.3342,2.326,2.3247,2.3345,2.3345,2.3345,2.3345,2.3345,2.3345,2.3023,2.3073,2.3075,2.3134,2.3146,2.3186,2.3201,2.3221,2.3237,2.3286,2.3314,2.3321,2.3338,2.3372,2.3403,2.3405,2.3418,2.3435,2.3435,2.3358,2.3347,2.3337,2.3325,2.3438,2.3438,2.3513,2.3514,2.3515]},{"header":{"parameterUnit":"m.s-1","parameterCategory":1,"la1":30.2991,"la2":30.254,"lo1":-89.0895,"lo2":-89.0444,"dy":0.0017,"dx":0.0017,"nx":28,"ny":28,"refTime":"2023-08-23T09:00:00:Z","depth":0,"parameterNumber":3,"parameterNumberName":"V-component_of_WINDS"},"data":[0,0,0,0,0,0,0,0,0,0,0,0,0,0,0,0,0,0,0,0,0,0,0,0,0,0,0,0,0,0,0,0,0,0,0,0,0,0,0,0,0,0,0,0,0,0,0,0,0,0,0,0,0,0,0,0,0,0,-1.9864,-1.9865,0,-1.9962,-1.9963,-1.9964,-1.9995,-1.9994,-1.9994,-1.9993,-2.0092,-2.0095,-2.0098,0,0,0,0,0,0,0,0,0,0,0,0,0,-1.9703,-1.9706,-1.9864,-1.9865,-1.9866,-1.9962,-1.9963,-1.9964,-1.9995,-1.9994,-1.9994,-1.9993,-2.0091,-2.0095,-2.0099,0,0,0,0,0,0,0,0,0,0,0,0,0,-1.9784,-1.9707,-1.9864,-1.9893,-1.9897,-1.9961,-1.9963,-1.9965,-1.9995,-1.9994,-1.9994,-1.9993,-2.009,-2.0095,-2.0099,-2.0141,0,0,-2.0113,-2.0115,0,0,0,0,0,0,0,0,-1.9779,-1.979,-1.9888,-1.9891,-1.9895,-1.9965,-1.9942,-2.0024,-1.9995,-1.9958,-1.9993,-1.9993,-2.0051,-2.0058,-2.0078,-2.0146,-2.015,-2.0114,-2.0117,-2.0118,-2.012,0,0,0,0,0,0,0,-1.9774,-1.9786,-1.9903,-1.9889,-1.9894,-1.9901,-1.9912,-1.9958,-2.0007,-1.9961,-1.9963,-1.9974,-2.0053,-2.0074,-2.0081,-2.0152,-2.0114,-2.0118,-2.0121,-2.0122,-2.0259,-2.026,0,0,0,0,0,0,-1.9763,-1.9781,-1.9899,-1.9906,-1.9834,-1.9905,-1.9917,-1.9944,-2.0006,-2.0015,-1.9975,-1.9976,-2.0066,-2.0075,-2.0084,-2.0138,-2.0118,-2.0123,-2.0125,-2.0258,-2.0259,-2.026,0,0,0,0,0,0,-1.9759,-1.9773,-1.9896,-1.9844,-1.986,-1.9908,-1.9938,-1.9946,-1.9967,-2.0017,-2.0026,-1.9988,-2.0066,-2.0078,-2.0127,-2.0142,-2.0125,-2.0129,-2.0257,-2.0258,-2.026,-2.0245,0,0,0,0,0,0,-1.9755,-1.9772,-1.9789,-1.9844,-1.9863,-1.9937,-1.9939,-1.9948,-1.9975,-1.9977,-2.0031,-2.004,-2.0066,-2.012,-2.0132,-2.0148,-2.0133,-2.0256,-2.0258,-2.0259,-2.0244,-2.0245,-2.0246,0,0,0,0,0,-1.9749,-1.978,-1.9789,-1.9803,-1.9885,-1.9937,-1.9948,-1.9979,-1.9976,-1.9993,-2.0025,-2.0038,-2.0138,-2.0125,-2.0138,-2.0156,-2.0255,-2.0257,-2.0259,-2.0244,-2.0245,-2.0246,0,0,0,0,0,0,-1.9725,-1.9788,-1.9799,-1.9849,-1.9888,-1.9943,-1.9965,-1.9979,-2.0019,-2.0019,-2.0055,-2.0067,-2.0113,-2.014,-2.0123,-2.02,-2.0197,-2.0202,-2.0181,-2.0183,-2.0184,-2.0177,-2.0136,0,0,0,0,0,-1.9725,-1.9763,-1.9817,-1.9856,-1.9875,-1.9916,-1.9941,-1.9961,-2.0002,-2.0019,-2.0054,-2.0094,-2.0134,-2.016,-2.02,-2.0248,-2.0261,-2.0267,-2.0268,-2.0269,-2.0272,-2.03,-2.0303,-2.0266,-2.0266,-2.0266,0,0,-1.9727,-1.9766,-1.9788,-1.9852,-1.9884,-1.9923,-1.993,-1.997,-1.9999,-2.0025,-2.0073,-2.0101,-2.0147,-2.0196,-2.0219,-2.0219,-2.0285,-2.0271,-2.0272,-2.0275,-2.0302,-2.0306,-2.0309,-2.0268,-2.0268,-2.0267,0,0,-1.9749,-1.9783,-1.9819,-1.9852,-1.9901,-1.9928,-1.9937,-1.999,-2.0009,-2.0059,-2.0079,-2.0113,-2.0182,-2.0215,-2.024,-2.0275,-2.0288,-2.0287,-2.0293,-2.0319,-2.0322,-2.0325,-2.0337,-2.0341,-2.029,-2.029,-2.029,0,-1.9745,-1.9804,-1.9836,-1.9876,-1.9903,-1.9928,-1.9965,-1.9995,-2.0054,-2.0073,-2.0072,-2.0159,-2.0192,-2.0249,-2.0257,-2.0277,-2.0288,-2.028,-2.0319,-2.0322,-2.0325,-2.0337,-2.0342,-2.029,-2.029,-2.029,-2.029,0,-1.9796,-1.9836,-1.986,-1.9917,-1.9947,-1.9985,-2.0023,-2.0049,-2.0067,-2.0094,-2.0144,-2.0185,-2.0234,-2.0249,-2.0266,-2.0308,-2.0307,-2.0312,-2.031,-2.0327,-2.0339,-2.0344,-2.0289,-2.0289,-2.0289,-2.0289,0,0,-1.9806,-1.988,-1.9888,-1.9914,-1.997,-2.0002,-2.0041,-2.0089,-2.0111,-2.0151,-2.0185,-2.0243,-2.0248,-2.0277,-2.0298,-2.0321,-2.0346,-2.0324,-2.0326,-2.0327,-2.0395,-2.039,-2.0395,-2.0355,-2.0356,-2.0357,-2.0391,0,-1.9835,-1.9906,-1.9936,-1.9993,-2.0031,-2.0056,-2.009,-2.0128,-2.0154,-2.019,-2.022,-2.026,-2.0264,-2.0282,-2.0306,-2.0338,-2.036,-2.0336,-2.0387,-2.0388,-2.0374,-2.0401,-2.0397,-2.0426,-2.0396,-2.0397,-2.0397,0,-1.9879,-1.9919,-1.998,-2.0032,-2.0049,-2.0078,-2.0125,-2.0159,-2.0202,-2.022,-2.0252,-2.0273,-2.0314,-2.031,-2.0368,-2.035,-2.0373,-2.0392,-2.0394,-2.04,-2.0393,-2.0407,-2.0437,-2.0441,-2.0405,-2.0404,-2.0404,0,-1.988,-1.9949,-1.9995,-2.0016,-2.0078,-2.0098,-2.0125,-2.0167,-2.0194,-2.0235,-2.0253,-2.0297,-2.0322,-2.0356,-2.0388,-2.0381,-2.0442,-2.044,-2.0458,-2.0457,-2.047,-2.0469,-2.0503,-2.0485,-2.0484,-2.0484,-2.0484,0,-1.9909,-1.9945,-1.9996,-2.0024,-2.0065,-2.0099,-2.0139,-2.0167,-2.0205,-2.0239,-2.0263,-2.0294,-2.0334,-2.037,-2.0396,-2.044,-2.0451,-2.0466,-2.0472,-2.0464,-2.0462,-2.0479,-2.0478,-2.0486,-2.0485,-2.0485,-2.0485,0,-1.9917,-1.9952,-2.0003,-2.0057,-2.0072,-2.01,-2.0146,-2.0174,-2.0202,-2.0244,-2.0256,-2.03,-2.0344,-2.0379,-2.0436,-2.0453,-2.0499,-2.0506,-2.0484,-2.0488,-2.0503,-2.0501,-2.055,-2.0558,-2.0534,-2.0534,-2.0534,0,-1.9933,-1.9962,-2.0019,-2.0043,-2.0069,-2.0108,-2.0136,-2.0171,-2.0199,-2.025,-2.0272,-2.0317,-2.0356,-2.0425,-2.0462,-2.0505,-2.0514,-2.0528,-2.052,-2.0511,-2.0514,-2.0512,-2.0515,-2.0528,-2.0528,-2.0528,-2.0528,0,-1.9959,-1.9975,-2.0014,-2.0059,-2.0091,-2.0129,-2.0166,-2.0185,-2.0227,-2.0257,-2.0302,-2.0332,-2.039,-2.0435,-2.0483,-2.051,-2.0526,-2.053,-2.0537,-2.0528,-2.0515,-2.0522,-2.0486,-2.0529,-2.0529,-2.0529,-2.0529,-2.0529,-1.9972,-1.9998,-2.0042,-2.0085,-2.0117,-2.0152,-2.018,-2.0212,-2.0251,-2.0301,-2.0319,-2.0366,-2.0408,-2.0474,-2.0502,-2.0539,-2.054,-2.0549,-2.0552,-2.0553,-2.0552,-2.0509,-2.0547,-2.0547,-2.0547,-2.0547,-2.0547,0,-1.9998,-2.0028,-2.0067,-2.0119,-2.0152,-2.0165,-2.0207,-2.0234,-2.0275,-2.0314,-2.0351,-2.0403,-2.0446,-2.0487,-2.0533,-2.0554,-2.0563,-2.0565,-2.0564,-2.057,-2.0548,-2.0538,-2.0557,-2.0557,-2.0557,-2.0557,-2.0557,-2.0557,-2.0016,-2.0061,-2.0083,-2.0144,-2.0173,-2.0219,-2.0242,-2.0274,-2.0305,-2.0362,-2.0399,-2.0425,-2.0464,-2.0513,-2.0554,-2.0565,-2.058,-2.0581,-2.0593,-2.0573,-2.0571,-2.057,-2.056,-2.0584,-2.0584,-2.0611,-2.0612,-2.0612]}]]